Regional Weather Roundup
Issued by NWS

Home | Current Version | Previous Version | Graphics & Text | Print | Product List | Glossary On
Versions: 1 2 3 4 5 6 7 8 9 10 11 12 13 14 15 16 17 18 19 20 21 22 23 24 25 26 27 28 29 30 31 32 33 34 35 36 37 38 39 40 41 42 43 44 45 46 47 48 49 50
000
ASUS43 KLMK 191710
RWRKY
KENTUCKY REGIONAL WEATHER ROUNDUP
NATIONAL WEATHER SERVICE LOUISVILLE KY
100 PM EDT SUN APR 19 2015

NOTE "FAIR" INDICATES FEW OR NO CLOUDS BELOW 12,000 FEET
WITH NO SIGNIFICANT WEATHER AND/OR OBSTRUCTIONS TO VISIBILITY.

KYZ001>023-026-027-061>063-070>075-191800-
WESTERN AND SOUTH CENTRAL KENTUCKY

CITY           SKY/WX    TMP DP  RH WIND       PRES   REMARKS
PADUCAH        CLOUDY    67  64  90 S5        29.56F FOG
HENDERSON      CLOUDY    66  63  88 SE6       29.57F
OWENSBORO      LGT RAIN  68  65  90 SE6       29.58F
HOPKINSVILLE   PTSUNNY   73  64  73 S12       29.58F
BOWLING GREEN  CLOUDY    69  65  86 SW7       29.58F
GLASGOW        RAIN      66  66 100 SE10G17   29.58F
$$

KYZ024-025-028>034-038-045-046-053-191800-
NORTH CENTRAL KENTUCKY

CITY           SKY/WX    TMP DP  RH WIND       PRES   REMARKS
LOUISVILLE/SDF CLOUDY    66  62  87 E15G22    29.60F
LOUISVILLE/LOU CLOUDY    66  62  87 E14G20    29.62F
FORT KNOX      NOT AVBL
$$

KYZ035>037-039>044-047>052-055>060-089>105-191800-
NORTHEAST KENTUCKY

CITY           SKY/WX    TMP DP  RH WIND       PRES   REMARKS
LEXINGTON      LGT RAIN  63  61  93 SE16      29.68F FOG
COVINGTON      LGT RAIN  62  59  90 SE17G24   29.70F
FRANKFORT      RAIN      63  61  93 E14       29.64F FOG
$$

KYZ054-064>069-076>088-106>120-191800-
SOUTHEAST KENTUCKY

CITY           SKY/WX    TMP DP  RH WIND       PRES   REMARKS
JACKSON        RAIN      63  61  93 VRB7      29.76F FOG
LONDON         CLOUDY    68  60  75 SE12      29.71F
SOMERSET       CLOUDY    66  63  88 SE12G22   29.69F
MIDDLESBORO    CLOUDY    65  62  90 S8        29.76F
MONTICELLO     PTSUNNY   69  65  87 S15G21    29.69F
$$



USA.gov is the U.S. government's official web portal to all federal, state and local government web resources and services.